| time (UTC) | temp C | wind direction | speed KPH | gust KPH | rain 1hr cm | rain 24hr cm | rain mn cm | humidity % | barometer mb |
| 20260903235104 | 28 | 253 | 8.0 | 16.1 | 0.00 | 0.00 | 0.00 | 28 | 1011.2 |
| 20260903234604 | 28 | 281 | 9.7 | 16.1 | 0.00 | 0.00 | 0.00 | 28 | 1011.2 |
| 20260903234104 | 28 | 265 | 9.7 | 14.5 | 0.00 | 0.00 | 0.00 | 28 | 1011.3 |
| 20260903233604 | 28 | 249 | 4.8 | 14.5 | 0.00 | 0.00 | 0.00 | 26 | 1011.3 |
| 20260903233104 | 28 | 264 | 9.7 | 14.5 | 0.00 | 0.00 | 0.00 | 26 | 1011.3 |
| 20260903232604 | 29 | 237 | 8.0 | 16.1 | 0.00 | 0.00 | 0.00 | 25 | 1011.4 |
| 20260903232104 | 29 | 259 | 8.0 | 16.1 | 0.00 | 0.00 | 0.00 | 26 | 1011.3 |
| 20260903231603 | 28 | 258 | 9.7 | 16.1 | 0.00 | 0.00 | 0.00 | 26 | 1011.5 |
| 20260903231104 | 29 | 257 | 9.7 | 16.1 | 0.00 | 0.00 | 0.00 | 25 | 1011.6 |
| 20260903230609 | 29 | 265 | 9.7 | 16.1 | 0.00 | 0.00 | 0.00 | 24 | 1011.7 |
| 20260903230104 | 29 | 226 | 9.7 | 14.5 | 0.00 | 0.00 | 0.00 | 25 | 1011.6 |
| 20260903225611 | 29 | 236 | 8.0 | 19.3 | 0.00 | 0.00 | 0.00 | 24 | 1011.6 |
| 20260903225104 | 29 | 282 | 9.7 | 19.3 | 0.00 | 0.00 | 0.00 | 24 | 1011.6 |
| 20260903224604 | 29 | 276 | 6.4 | 20.9 | 0.00 | 0.00 | 0.00 | 25 | 1011.7 |
| 20260903224103 | 29 | 252 | 9.7 | 20.9 | 0.00 | 0.00 | 0.00 | 25 | 1011.7 |
| 20260903223604 | 29 | 263 | 11.3 | 16.1 | 0.00 | 0.00 | 0.00 | 24 | 1011.8 |
| 20260903223104 | 29 | 254 | 6.4 | 16.1 | 0.00 | 0.00 | 0.00 | 24 | 1011.8 |
| 20260903222104 | 29 | 284 | 6.4 | 16.1 | 0.00 | 0.00 | 0.00 | 24 | 1011.9 |
| 20260903221104 | 28 | 280 | 8.0 | 16.1 | 0.00 | 0.00 | 0.00 | 25 | 1011.9 |
| 20260903220603 | 28 | 260 | 9.7 | 19.3 | 0.00 | 0.00 | 0.00 | 24 | 1012.0 |
| 20260903220105 | 28 | 263 | 9.7 | 19.3 | 0.00 | 0.00 | 0.00 | 24 | 1012.1 |
| 20260903215104 | 28 | 269 | 9.7 | 19.3 | 0.00 | 0.00 | 0.00 | 25 | 1012.2 |
| 20260903214104 | 28 | 265 | 9.7 | 19.3 | 0.00 | 0.00 | 0.00 | 24 | 1012.4 |
| 20260903213604 | 28 | 241 | 8.0 | 19.3 | 0.00 | 0.00 | 0.00 | 23 | 1012.5 |
| 20260903212603 | 28 | 284 | 9.7 | 19.3 | 0.00 | 0.00 | 0.00 | 24 | 1012.5 |
| 20260903212104 | 28 | 283 | 9.7 | 20.9 | 0.00 | 0.00 | 0.00 | 24 | 1012.5 |
| 20260903211604 | 28 | 303 | 9.7 | 20.9 | 0.00 | 0.00 | 0.00 | 23 | 1012.5 |
| 20260903211104 | 28 | 257 | 11.3 | 20.9 | 0.00 | 0.00 | 0.00 | 23 | 1012.5 |
| 20260903210609 | 28 | 270 | 6.4 | 14.5 | 0.00 | 0.00 | 0.00 | 24 | 1012.5 |
| 20260903210104 | 28 | 284 | 8.0 | 14.5 | 0.00 | 0.00 | 0.00 | 25 | 1012.5 |
| 20260903205617 | 28 | 272 | 6.4 | 19.3 | 0.00 | 0.00 | 0.00 | 25 | 1012.6 |
| 20260903205103 | 28 | 275 | 8.0 | 19.3 | 0.00 | 0.00 | 0.00 | 24 | 1012.6 |
| 20260903204603 | 27 | 284 | 8.0 | 19.3 | 0.00 | 0.00 | 0.00 | 26 | 1012.6 |
| 20260903204104 | 28 | 275 | 8.0 | 16.1 | 0.00 | 0.00 | 0.00 | 25 | 1012.8 |
| 20260903203105 | 27 | 312 | 8.0 | 14.5 | 0.00 | 0.00 | 0.00 | 25 | 1012.8 |
| 20260903202604 | 27 | 259 | 4.8 | 14.5 | 0.00 | 0.00 | 0.00 | 27 | 1012.9 |
| 20260903201604 | 27 | 270 | 4.8 | 14.5 | 0.00 | 0.00 | 0.00 | 27 | 1013.0 |
| 20260903201104 | 27 | 274 | 4.8 | 14.5 | 0.00 | 0.00 | 0.00 | 26 | 1013.0 |
| 20260903200105 | 27 | 235 | 4.8 | 14.5 | 0.00 | 0.00 | 0.00 | 27 | 1013.0 |
| 20260903195604 | 27 | 272 | 4.8 | 14.5 | 0.00 | 0.00 | 0.00 | 26 | 1013.0 |
| 20260903195104 | 27 | 298 | 4.8 | 14.5 | 0.00 | 0.00 | 0.00 | 29 | 1013.0 |
| 20260903194604 | 26 | 288 | 8.0 | 14.5 | 0.00 | 0.00 | 0.00 | 28 | 1013.1 |
| 20260903194103 | 26 | 284 | 3.2 | 12.9 | 0.00 | 0.00 | 0.00 | 26 | 1013.2 |
| 20260903193604 | 26 | 269 | 4.8 | 11.3 | 0.00 | 0.00 | 0.00 | 28 | 1013.3 |
| 20260903193104 | 26 | 299 | 4.8 | 11.3 | 0.00 | 0.00 | 0.00 | 28 | 1013.5 |
| 20260903192604 | 26 | 254 | 8.0 | 11.3 | 0.00 | 0.00 | 0.00 | 28 | 1013.5 |
| 20260903192104 | 26 | 311 | 3.2 | 11.3 | 0.00 | 0.00 | 0.00 | 28 | 1013.6 |
| 20260903191604 | 26 | 303 | 4.8 | 11.3 | 0.00 | 0.00 | 0.00 | 29 | 1013.6 |
| 20260903191104 | 26 | 286 | 3.2 | 11.3 | 0.00 | 0.00 | 0.00 | 28 | 1013.6 |
| 20260903190609 | 26 | 252 | 4.8 | 11.3 | 0.00 | 0.00 | 0.00 | 29 | 1013.7 |
| 20260903190104 | 25 | 291 | 1.6 | 14.5 | 0.00 | 0.00 | 0.00 | 28 | 1013.9 |
| 20260903185609 | 25 | 265 | 6.4 | 14.5 | 0.00 | 0.00 | 0.00 | 29 | 1014.1 |
| 20260903184604 | 25 | 275 | 3.2 | 11.3 | 0.00 | 0.00 | 0.00 | 31 | 1014.2 |
| 20260903184104 | 25 | 247 | 4.8 | 11.3 | 0.00 | 0.00 | 0.00 | 33 | 1014.2 |
| 20260903183604 | 24 | 280 | 1.6 | 9.7 | 0.00 | 0.00 | 0.00 | 32 | 1014.2 |
| 20260903183105 | 24 | 281 | 3.2 | 8.0 | 0.00 | 0.00 | 0.00 | 35 | 1014.2 |
| 20260903182604 | 24 | 270 | 3.2 | 11.3 | 0.00 | 0.00 | 0.00 | 35 | 1014.2 |
| 20260903182104 | 24 | 268 | 6.4 | 11.3 | 0.00 | 0.00 | 0.00 | 36 | 1014.2 |
| 20260903181604 | 23 | 285 | 1.6 | 8.0 | 0.00 | 0.00 | 0.00 | 37 | 1014.3 |
| 20260903181104 | 23 | 269 | 3.2 | 9.7 | 0.00 | 0.00 | 0.00 | 37 | 1014.3 |
| 20260903180604 | 23 | 286 | 3.2 | 9.7 | 0.00 | 0.00 | 0.00 | 38 | 1014.3 |
| 20260903180105 | 23 | 308 | 4.8 | 9.7 | 0.00 | 0.00 | 0.00 | 39 | 1014.2 |
| 20260903175604 | 23 | 293 | 3.2 | 9.7 | 0.00 | 0.00 | 0.00 | 39 | 1014.4 |
| 20260903175104 | 23 | 274 | 3.2 | 9.7 | 0.00 | 0.00 | 0.00 | 40 | 1014.4 |
| 20260903174604 | 23 | 270 | 3.2 | 9.7 | 0.00 | 0.00 | 0.00 | 39 | 1014.5 |
| 20260903174104 | 22 | 294 | 4.8 | 9.7 | 0.00 | 0.00 | 0.00 | 39 | 1014.5 |
| 20260903173604 | 22 | 283 | 3.2 | 9.7 | 0.00 | 0.00 | 0.00 | 39 | 1014.5 |
| 20260903173104 | 22 | 290 | 1.6 | 9.7 | 0.00 | 0.00 | 0.00 | 40 | 1014.5 |
| 20260903172104 | 22 | 283 | 4.8 | 8.0 | 0.00 | 0.00 | 0.00 | 40 | 1014.4 |
| 20260903171604 | 21 | 301 | 1.6 | 8.0 | 0.00 | 0.00 | 0.00 | 41 | 1014.4 |
| 20260903171104 | 21 | 269 | 1.6 | 4.8 | 0.00 | 0.00 | 0.00 | 42 | 1014.4 |
| 20260903170609 | 21 | 268 | 1.6 | 9.7 | 0.00 | 0.00 | 0.00 | 42 | 1014.5 |
| 20260903170105 | 21 | 305 | 3.2 | 9.7 | 0.00 | 0.00 | 0.00 | 41 | 1014.5 |
| 20260903165608 | 21 | 290 | 3.2 | 9.7 | 0.00 | 0.00 | 0.00 | 41 | 1014.5 |
| 20260903164604 | 20 | 271 | 3.2 | 4.8 | 0.00 | 0.00 | 0.00 | 41 | 1014.4 |
| 20260903163604 | 20 | 282 | 3.2 | 8.0 | 0.00 | 0.00 | 0.00 | 41 | 1014.4 |
| 20260903163104 | 20 | 299 | 1.6 | 4.8 | 0.00 | 0.00 | 0.00 | 39 | 1014.5 |
| 20260903162604 | 20 | 296 | 1.6 | 4.8 | 0.00 | 0.00 | 0.00 | 39 | 1014.4 |
| 20260903162104 | 19 | 296 | 1.6 | 4.8 | 0.00 | 0.00 | 0.00 | 40 | 1014.5 |
| 20260903161604 | 18 | 296 | 0.0 | 4.8 | 0.00 | 0.00 | 0.00 | 43 | 1014.5 |
| 20260903161103 | 18 | 296 | 3.2 | 8.0 | 0.00 | 0.00 | 0.00 | 45 | 1014.5 |
| 20260903160604 | 18 | 296 | 3.2 | 8.0 | 0.00 | 0.00 | 0.00 | 45 | 1014.6 |
| 20260903160105 | 18 | 310 | 1.6 | 8.0 | 0.00 | 0.00 | 0.00 | 44 | 1014.6 |
| 20260903155604 | 18 | 350 | 1.6 | 4.8 | 0.00 | 0.00 | 0.00 | 43 | 1014.7 |
| 20260903155104 | 18 | 39 | 0.0 | 1.6 | 0.00 | 0.00 | 0.00 | 38 | 1014.7 |
| 20260903154604 | 18 | 40 | 0.0 | 1.6 | 0.00 | 0.00 | 0.00 | 39 | 1014.7 |
| 20260903153104 | 17 | 40 | 1.6 | 4.8 | 0.00 | 0.00 | 0.00 | 40 | 1014.7 |
| 20260903152604 | 17 | 40 | 1.6 | 3.2 | 0.00 | 0.00 | 0.00 | 40 | 1014.7 |
| 20260903152104 | 17 | 40 | 0.0 | 1.6 | 0.00 | 0.00 | 0.00 | 41 | 1014.7 |
| 20260903151603 | 17 | 40 | 0.0 | 1.6 | 0.00 | 0.00 | 0.00 | 43 | 1014.7 |
| 20260903151104 | 17 | 40 | 0.0 | 1.6 | 0.00 | 0.00 | 0.00 | 46 | 1014.7 |
| 20260903150608 | 17 | 55 | 0.0 | 1.6 | 0.00 | 0.00 | 0.00 | 45 | 1014.7 |
| 20260903150105 | 17 | 55 | 0.0 | 1.6 | 0.00 | 0.00 | 0.00 | 41 | 1014.8 |
| 20260903145609 | 17 | 55 | 0.0 | 1.6 | 0.00 | 0.00 | 0.00 | 39 | 1014.7 |
| 20260903145104 | 16 | 55 | 0.0 | 3.2 | 0.00 | 0.00 | 0.00 | 38 | 1014.6 |
| 20260903144604 | 16 | 55 | 0.0 | 3.2 | 0.00 | 0.00 | 0.00 | 38 | 1014.6 |
| 20260903144104 | 15 | 55 | 1.6 | 3.2 | 0.00 | 0.00 | 0.00 | 41 | 1014.4 |
| 20260903143604 | 15 | 56 | 0.0 | 1.6 | 0.00 | 0.00 | 0.00 | 43 | 1014.4 |
| 20260903142603 | 14 | 56 | 0.0 | 1.6 | 0.00 | 0.00 | 0.00 | 47 | 1014.3 |
| 20260903142103 | 14 | 56 | 0.0 | 0.0 | 0.00 | 0.00 | 0.00 | 47 | 1014.2 |
| 20260903141604 | 13 | 56 | 0.0 | 1.6 | 0.00 | 0.00 | 0.00 | 47 | 1014.2 |
| 20260903141104 | 13 | 56 | 0.0 | 1.6 | 0.00 | 0.00 | 0.00 | 46 | 1014.2 |
| 20260903135605 | 13 | 56 | 0.0 | 3.2 | 0.00 | 0.00 | 0.00 | 47 | 1014.2 |
| 20260903135105 | 13 | 57 | 0.0 | 3.2 | 0.00 | 0.00 | 0.00 | 48 | 1014.0 |
| 20260903134605 | 13 | 155 | 1.6 | 3.2 | 0.00 | 0.00 | 0.00 | 49 | 1013.9 |
| 20260903134104 | 13 | 155 | 1.6 | 3.2 | 0.00 | 0.00 | 0.00 | 51 | 1013.7 |
| 20260903133604 | 13 | 155 | 0.0 | 3.2 | 0.00 | 0.00 | 0.00 | 51 | 1013.7 |
| 20260903133104 | 13 | 155 | 1.6 | 3.2 | 0.00 | 0.00 | 0.00 | 51 | 1013.6 |
| 20260903132603 | 13 | 155 | 1.6 | 3.2 | 0.00 | 0.00 | 0.00 | 51 | 1013.6 |
| 20260903132104 | 13 | 155 | 1.6 | 3.2 | 0.00 | 0.00 | 0.00 | 51 | 1013.6 |
| 20260903131604 | 13 | 155 | 1.6 | 3.2 | 0.00 | 0.00 | 0.00 | 50 | 1013.7 |
| 20260903131104 | 13 | 155 | 1.6 | 3.2 | 0.00 | 0.00 | 0.00 | 51 | 1013.6 |
| 20260903130105 | 13 | 155 | 1.6 | 3.2 | 0.00 | 0.00 | 0.00 | 49 | 1013.6 |
| 20260903125609 | 13 | 155 | 1.6 | 3.2 | 0.00 | 0.00 | 0.00 | 51 | 1013.7 |
| 20260903125104 | 13 | 155 | 1.6 | 3.2 | 0.00 | 0.00 | 0.00 | 51 | 1013.7 |
| 20260903124604 | 13 | 155 | 1.6 | 3.2 | 0.00 | 0.00 | 0.00 | 50 | 1013.7 |
| 20260903124103 | 13 | 155 | 1.6 | 3.2 | 0.00 | 0.00 | 0.00 | 51 | 1013.7 |
| 20260903123603 | 13 | 155 | 1.6 | 3.2 | 0.00 | 0.00 | 0.00 | 51 | 1013.7 |
| 20260903123104 | 13 | 155 | 1.6 | 3.2 | 0.00 | 0.00 | 0.00 | 51 | 1013.8 |
| 20260903122104 | 13 | 155 | 1.6 | 3.2 | 0.00 | 0.00 | 0.00 | 53 | 1013.8 |
| 20260903121604 | 13 | 155 | 1.6 | 3.2 | 0.00 | 0.00 | 0.00 | 53 | 1013.7 |
| 20260903121104 | 13 | 155 | 1.6 | 3.2 | 0.00 | 0.00 | 0.00 | 53 | 1013.8 |
| 20260903120604 | 13 | 155 | 1.6 | 3.2 | 0.00 | 0.00 | 0.00 | 53 | 1013.8 |
| 20260903115610 | 13 | 155 | 1.6 | 1.6 | 0.00 | 0.00 | 0.00 | 54 | 1014.0 |
| 20260903115104 | 13 | 155 | 0.0 | 1.6 | 0.00 | 0.00 | 0.00 | 54 | 1014.1 |
| 20260903114605 | 13 | 155 | 0.0 | 1.6 | 0.00 | 0.00 | 0.00 | 54 | 1014.1 |
| 20260903114104 | 13 | 155 | 0.0 | 3.2 | 0.00 | 0.00 | 0.00 | 51 | 1014.1 |
| 20260903113104 | 13 | 155 | 1.6 | 3.2 | 0.00 | 0.00 | 0.00 | 47 | 1014.2 |
| 20260903112603 | 13 | 155 | 1.6 | 3.2 | 0.00 | 0.00 | 0.00 | 47 | 1014.2 |
| 20260903111103 | 13 | 155 | 0.0 | 1.6 | 0.00 | 0.00 | 0.00 | 47 | 1014.3 |
| 20260903110606 | 13 | 155 | 0.0 | 4.8 | 0.00 | 0.00 | 0.00 | 48 | 1014.3 |
| 20260903105609 | 14 | 153 | 3.2 | 4.8 | 0.00 | 0.00 | 0.00 | 49 | 1014.3 |
| 20260903105104 | 14 | 150 | 0.0 | 3.2 | 0.00 | 0.00 | 0.00 | 47 | 1014.4 |
| 20260903104604 | 14 | 150 | 0.0 | 3.2 | 0.00 | 0.00 | 0.00 | 47 | 1014.3 |
| 20260903104104 | 14 | 150 | 1.6 | 3.2 | 0.00 | 0.00 | 0.00 | 49 | 1014.3 |
| 20260903103604 | 15 | 150 | 0.0 | 0.0 | 0.00 | 0.00 | 0.00 | 56 | 1014.4 |
| 20260903103104 | 15 | 150 | 0.0 | 1.6 | 0.00 | 0.00 | 0.00 | 55 | 1014.5 |
| 20260903102603 | 15 | 150 | 0.0 | 3.2 | 0.00 | 0.00 | 0.00 | 51 | 1014.5 |
| 20260903102103 | 15 | 150 | 0.0 | 3.2 | 0.00 | 0.00 | 0.00 | 47 | 1014.5 |
| 20260903101604 | 15 | 150 | 1.6 | 3.2 | 0.00 | 0.00 | 0.00 | 46 | 1014.5 |
| 20260903101104 | 15 | 150 | 1.6 | 1.6 | 0.00 | 0.00 | 0.00 | 44 | 1014.6 |
| 20260903100604 | 15 | 150 | 0.0 | 1.6 | 0.00 | 0.00 | 0.00 | 44 | 1014.5 |
| 20260903100105 | 15 | 150 | 0.0 | 1.6 | 0.00 | 0.00 | 0.00 | 44 | 1014.6 |
| 20260903095604 | 15 | 150 | 0.0 | 1.6 | 0.00 | 0.00 | 0.00 | 44 | 1014.6 |
| 20260903094604 | 15 | 150 | 1.6 | 1.6 | 0.00 | 0.00 | 0.00 | 45 | 1014.5 |
| 20260903094103 | 15 | 150 | 1.6 | 1.6 | 0.00 | 0.00 | 0.00 | 45 | 1014.6 |
| 20260903093604 | 15 | 150 | 1.6 | 1.6 | 0.00 | 0.00 | 0.00 | 45 | 1014.7 |
| 20260903093104 | 15 | 150 | 0.0 | 1.6 | 0.00 | 0.00 | 0.00 | 46 | 1014.7 |
| 20260903091604 | 16 | 150 | 0.0 | 0.0 | 0.00 | 0.00 | 0.00 | 47 | 1014.7 |
| 20260903091105 | 16 | 150 | 0.0 | 0.0 | 0.00 | 0.00 | 0.00 | 47 | 1014.7 |
| 20260903090606 | 16 | 150 | 0.0 | 1.6 | 0.00 | 0.00 | 0.00 | 47 | 1014.7 |
| 20260903090105 | 16 | 150 | 0.0 | 3.2 | 0.00 | 0.00 | 0.00 | 47 | 1014.6 |
| 20260903085608 | 16 | 150 | 0.0 | 3.2 | 0.00 | 0.00 | 0.00 | 47 | 1014.6 |
| 20260903085104 | 16 | 150 | 1.6 | 3.2 | 0.00 | 0.00 | 0.00 | 47 | 1014.6 |
| 20260903084108 | 16 | 150 | 0.0 | 1.6 | 0.00 | 0.00 | 0.00 | 48 | 1014.8 |
| 20260903083104 | 16 | 150 | 0.0 | 3.2 | 0.00 | 0.00 | 0.00 | 47 | 1014.9 |
| 20260903082604 | 16 | 150 | 1.6 | 3.2 | 0.00 | 0.00 | 0.00 | 47 | 1014.9 |
| 20260903082104 | 16 | 150 | 1.6 | 3.2 | 0.00 | 0.00 | 0.00 | 47 | 1015.0 |
| 20260903081604 | 16 | 150 | 0.0 | 3.2 | 0.00 | 0.00 | 0.00 | 46 | 1015.1 |
| 20260903081122 | 16 | 150 | 1.6 | 3.2 | 0.00 | 0.00 | 0.00 | 45 | 1015.1 |
| 20260903080131 | 17 | 150 | 1.6 | 3.2 | 0.00 | 0.00 | 0.00 | 44 | 1015.1 |
| 20260903075604 | 17 | 150 | 1.6 | 3.2 | 0.00 | 0.00 | 0.00 | 44 | 1015.1 |
| 20260903075104 | 17 | 150 | 0.0 | 3.2 | 0.00 | 0.00 | 0.00 | 43 | 1015.2 |
| 20260903074604 | 17 | 150 | 1.6 | 4.8 | 0.00 | 0.00 | 0.00 | 43 | 1015.2 |
| 20260903073604 | 17 | 150 | 3.2 | 3.2 | 0.00 | 0.00 | 0.00 | 45 | 1015.1 |
| 20260903073104 | 17 | 150 | 1.6 | 3.2 | 0.00 | 0.00 | 0.00 | 48 | 1015.1 |
| 20260903072604 | 17 | 150 | 0.0 | 1.6 | 0.00 | 0.00 | 0.00 | 49 | 1015.1 |
| 20260903072104 | 17 | 150 | 1.6 | 3.2 | 0.00 | 0.00 | 0.00 | 49 | 1015.1 |
| 20260903071604 | 17 | 150 | 0.0 | 3.2 | 0.00 | 0.00 | 0.00 | 49 | 1015.1 |
| 20260903071104 | 17 | 150 | 0.0 | 1.6 | 0.00 | 0.00 | 0.00 | 48 | 1015.1 |
| 20260903070605 | 17 | 150 | 0.0 | 3.2 | 0.00 | 0.00 | 0.00 | 48 | 1015.1 |
| 20260903070104 | 17 | 150 | 1.6 | 3.2 | 0.00 | 0.00 | 0.00 | 49 | 1015.1 |
| 20260903065607 | 17 | 150 | 1.6 | 3.2 | 0.00 | 0.00 | 0.00 | 49 | 1015.1 |
| 20260903065104 | 17 | 150 | 1.6 | 1.6 | 0.00 | 0.00 | 0.00 | 48 | 1015.2 |
| 20260903064604 | 17 | 150 | 0.0 | 3.2 | 0.00 | 0.00 | 0.00 | 47 | 1015.1 |
| 20260903064104 | 17 | 150 | 1.6 | 3.2 | 0.00 | 0.00 | 0.00 | 48 | 1015.2 |
| 20260903063604 | 17 | 150 | 0.0 | 3.2 | 0.00 | 0.00 | 0.00 | 50 | 1015.2 |
| 20260903063104 | 17 | 150 | 1.6 | 3.2 | 0.00 | 0.00 | 0.00 | 50 | 1015.2 |
| 20260903062604 | 17 | 150 | 1.6 | 3.2 | 0.00 | 0.00 | 0.00 | 50 | 1015.3 |
| 20260903062104 | 18 | 150 | 1.6 | 3.2 | 0.00 | 0.00 | 0.00 | 50 | 1015.3 |
| 20260903061604 | 18 | 150 | 0.0 | 3.2 | 0.00 | 0.00 | 0.00 | 49 | 1015.3 |
| 20260903061104 | 18 | 150 | 1.6 | 3.2 | 0.00 | 0.00 | 0.00 | 50 | 1015.3 |
| 20260903060605 | 18 | 150 | 0.0 | 1.6 | 0.00 | 0.00 | 0.00 | 50 | 1015.3 |
| 20260903054604 | 18 | 150 | 0.0 | 3.2 | 0.00 | 0.00 | 0.00 | 50 | 1015.5 |
| 20260903054104 | 18 | 150 | 1.6 | 3.2 | 0.00 | 0.00 | 0.00 | 50 | 1015.5 |
| 20260903053603 | 18 | 150 | 0.0 | 1.6 | 0.00 | 0.00 | 0.00 | 50 | 1015.6 |
| 20260903053103 | 18 | 150 | 0.0 | 0.0 | 0.00 | 0.00 | 0.00 | 50 | 1015.5 |
| 20260903052607 | 18 | 150 | 0.0 | 3.2 | 0.00 | 0.00 | 0.00 | 50 | 1015.5 |
| 20260903052104 | 18 | 150 | 0.0 | 4.8 | 0.00 | 0.00 | 0.00 | 50 | 1015.6 |
| 20260903051604 | 18 | 150 | 1.6 | 4.8 | 0.00 | 0.00 | 0.00 | 50 | 1015.5 |
| 20260903051105 | 18 | 150 | 1.6 | 4.8 | 0.00 | 0.00 | 0.00 | 50 | 1015.5 |
| 20260903050606 | 18 | 185 | 0.0 | 1.6 | 0.00 | 0.00 | 0.00 | 51 | 1015.5 |
| 20260903045608 | 19 | 185 | 0.0 | 1.6 | 0.00 | 0.00 | 0.00 | 50 | 1015.5 |
| 20260903045104 | 19 | 185 | 0.0 | 0.0 | 0.00 | 0.00 | 0.00 | 49 | 1015.4 |
| 20260903044604 | 19 | 185 | 0.0 | 1.6 | 0.00 | 0.00 | 0.00 | 49 | 1015.4 |
| 20260903042604 | 20 | 185 | 0.0 | 3.2 | 0.00 | 0.00 | 0.00 | 48 | 1015.2 |
| 20260903042104 | 20 | 185 | 0.0 | 1.6 | 0.00 | 0.00 | 0.00 | 48 | 1015.1 |
| 20260903041604 | 20 | 185 | 0.0 | 1.6 | 0.00 | 0.00 | 0.00 | 47 | 1015.1 |
| 20260903040105 | 20 | 185 | 1.6 | 3.2 | 0.00 | 0.00 | 0.00 | 46 | 1015.1 |
| 20260903034103 | 20 | 168 | 1.6 | 3.2 | 0.00 | 0.00 | 0.00 | 47 | 1014.9 |
| 20260903033104 | 20 | 192 | 0.0 | 3.2 | 0.00 | 0.00 | 0.00 | 46 | 1014.8 |
| 20260903032604 | 21 | 192 | 0.0 | 3.2 | 0.00 | 0.00 | 0.00 | 45 | 1014.7 |
| 20260903032104 | 21 | 196 | 0.0 | 3.2 | 0.00 | 0.00 | 0.00 | 44 | 1014.7 |
| 20260903024604 | 22 | 216 | 0.0 | 3.2 | 0.00 | 0.00 | 0.00 | 36 | 1014.4 |
| 20260903024104 | 22 | 266 | 1.6 | 3.2 | 0.00 | 0.00 | 0.00 | 35 | 1014.3 |
| 20260903023603 | 22 | 270 | 1.6 | 4.8 | 0.00 | 0.00 | 0.00 | 35 | 1014.2 |
| 20260903023104 | 22 | 298 | 1.6 | 4.8 | 0.00 | 0.00 | 0.00 | 34 | 1014.1 |
| 20260903022103 | 23 | 276 | 1.6 | 4.8 | 0.00 | 0.00 | 0.00 | 33 | 1013.9 |
| 20260903021104 | 23 | 285 | 1.6 | 4.8 | 0.00 | 0.00 | 0.00 | 31 | 1013.9 |
| 20260903020604 | 24 | 285 | 1.6 | 4.8 | 0.00 | 0.00 | 0.00 | 29 | 1013.9 |
| 20260903020105 | 25 | 279 | 3.2 | 4.8 | 0.00 | 0.00 | 0.00 | 28 | 1013.9 |
| 20260903015604 | 26 | 294 | 3.2 | 4.8 | 0.00 | 0.00 | 0.00 | 26 | 1013.9 |
| 20260903015104 | 26 | 288 | 3.2 | 8.0 | 0.00 | 0.00 | 0.00 | 26 | 1013.9 |
| 20260903014604 | 26 | 256 | 3.2 | 8.0 | 0.00 | 0.00 | 0.00 | 25 | 1013.8 |
| 20260903012104 | 27 | 260 | 6.4 | 11.3 | 0.00 | 0.00 | 0.00 | 18 | 1013.5 |
| 20260903011604 | 28 | 240 | 6.4 | 11.3 | 0.00 | 0.00 | 0.00 | 18 | 1013.5 |
| 20260903011103 | 28 | 265 | 6.4 | 12.9 | 0.00 | 0.00 | 0.00 | 18 | 1013.4 |
| 20260903005608 | 29 | 233 | 6.4 | 14.5 | 0.00 | 0.00 | 0.00 | 20 | 1013.4 |
| 20260903004104 | 30 | 238 | 4.8 | 14.5 | 0.00 | 0.00 | 0.00 | 19 | 1013.4 |
| 20260903003603 | 29 | 246 | 6.4 | 14.5 | 0.00 | 0.00 | 0.00 | 18 | 1013.4 |
| 20260903003104 | 29 | 237 | 6.4 | 12.9 | 0.00 | 0.00 | 0.00 | 17 | 1013.4 |
| 20260903002106 | 30 | 266 | 8.0 | 14.5 | 0.00 | 0.00 | 0.00 | 17 | 1013.4 |
| 20260903001604 | 30 | 258 | 4.8 | 12.9 | 0.00 | 0.00 | 0.00 | 17 | 1013.4 |
| 20260903000604 | 30 | 236 | 8.0 | 14.5 | 0.00 | 0.00 | 0.00 | 18 | 1013.4 |
| 20260903000107 | 30 | 263 | 6.4 | 19.3 | 0.00 | 0.00 | 0.00 | 17 | 1013.4 |